Zurück zum Katalog

STARLINK-37136

AktivKommunikationVLEO
NORAD 68347·PAYLOAD·🇺🇸 United States

Gestartet Mar 22, 2026 von Cape Canaveral Space Force Station

Loading…

Nächste Überflüge (nächste 24 Stunden)

TLE

AktuellSource: CelesTrak SupGP

Epoche: Sep 15, 2026, 03:36 UTC

1 68347C 26059AC  26258.15048611 -.00023381  00000+0 -69088-3 0  2589
2 68347  53.1584 186.3838 0001336  83.8695 108.5330 15.34398866    19

Verfolge STARLINK-37136 in Echtzeit mit AllMySat

Download on the App Store